Regional Weather Roundup
Issued by NWS Cleveland, OH

Home | Current Version | Previous Version | Text Only | Print | Product List | Glossary Off
Versions: 1 2 3 4 5 6 7 8 9 10 11 12 13 14 15 16 17 18 19 20 21 22 23 24 25 26 27 28 29 30 31 32 33 34 35 36 37 38 39 40 41 42 43 44 45 46 47 48 49 50

373
ASUS41 KCLE 251110
RWRCLE
OHIO REGIONAL WEATHER ROUNDUP
NATIONAL WEATHER SERVICE WILMINGTON, OH
600 AM EST SAT NOV 25 2017

NOTE: "FAIR" INDICATES FEW OR NO CLOUDS BELOW 12,000 FEET WITH NO
SIGNIFICANT WEATHER AND/OR OBSTRUCTIONS TO VISIBILITY.

OHZ001>008-015>018-024>027-034-035-043-044-251200-
   NORTHWEST OHIO

CITY           SKY/WX    TMP DP  RH WIND       PRES   REMARKS
DEFIANCE       FAIR      45  36  70 SW6       29.67R
FINDLAY        FAIR      47  34  60 W12       29.66R
TOLEDO EXPRESS FAIR      46  38  73 W12       29.64R
TOLEDO EXEC    FAIR      44  35  70 SW8       29.64R
LIMA           FAIR      43  35  73 SW9       29.69R
$$

OHZ009>014-019>023-028>033-038-089-251200-
   NORTHEAST OHIO

CITY           SKY/WX    TMP DP  RH WIND       PRES   REMARKS
CLE-HOPKINS    MOCLDY    51  32  48 SW14G22   29.65R
CLE-LAKEFRONT  LGT RAIN  51  33  50 SW17      29.62R
CUY CO. ARPT   NOT AVBL
LORAIN-ELYRIA  FAIR      48  29  47 W14       29.65R
ASHTABULA      MOCLDY    49  27  42 SW9       29.62S
AKRON-CANTON   MOCLDY    48  27  44 SW10      29.66S
WOOSTER        FAIR      48  29  47 W13       29.67R
MANSFIELD      FAIR      47  30  51 SW14G21   29.67R
YOUNGSTOWN     CLOUDY    50  27  40 SW14      29.64S
$$

OHZ042-051>053-060>062-070>072-077>081-251200-
  SOUTHWEST OHIO

CITY           SKY/WX    TMP DP  RH WIND       PRES   REMARKS
CINC-COVINGTON FAIR      48  31  51 SW9       29.78R
CINC-LUNKEN    FAIR      46  31  55 SW8       29.79R
HAMILTON       FAIR      48  31  51 SW7       29.77R
DAYTON         FAIR      45  33  63 SW14      29.73R
WRIGHT-PAT AFB FAIR      43  28  57 S8        29.73R
DAYTON GENERAL FAIR      48  29  47 SW10      29.74R
WILMINGTON     FAIR      47  32  56 SW13      29.75R
$$

OHZ036-037-039>041-045>050-054>059-063>069-073>076-082>088-251200-
  CENTRAL AND SOUTHEAST OHIO

CITY           SKY/WX    TMP DP  RH WIND       PRES   REMARKS
COLUMBUS       MOCLDY    49  32  52 SW10      29.72S
OSU AIRPORT    FAIR      48  32  53 SW10      29.71S
BOLTON FIELD   FAIR      46  32  57 SW12      29.72S
RICKENBACK AFB FAIR      46  32  57 SW9       29.73R
NEWARK         FAIR      50  30  46 SW13      29.71S
MARION         FAIR      47  31  53 SW8       29.69R
LANCASTER      FAIR      50  33  52 SW9G20    29.73R
ZANESVILLE     MOCLDY    49  30  48 S9        29.72S
NEW PHILLY     MOCLDY    50  28  42 SW8       29.70F
$$




USA.gov is the U.S. government's official web portal to all federal, state and local government web resources and services.